DW7259 Weather Reports


Display with metric or nautical units.
time (UTC)temp
F
wind
direction
speed
MPH
gust
MPH
rain 1hr
in
rain 24hr
in
rain mn
in
humidity
%
barometer
mb
20260831134529 54 289 0.0 6.0 0.00 0.00 0.00 53 1004.8
20260831133024 54 288 4.0 5.0 0.00 0.00 0.00 52 1004.8
20260831131522 54 360 1.0 5.0 0.00 0.00 0.00 51 1004.7
20260831130021 54 360 1.0 4.0 0.00 0.00 0.00 51 1004.7
20260831124519 55 284 0.0 0.0 0.00 0.00 0.00 50 1004.8
20260831123022 55 360 0.0 0.0 0.00 0.00 0.00 50 1004.8
20260831121517 56 360 0.0 0.0 0.00 0.00 0.00 49 1004.9
20260831120018 55 320 0.0 1.0 0.00 0.00 0.00 53 1005.0
20260831114516 55 320 0.0 0.0 0.00 0.00 0.00 53 1005.0
20260831113014 55 320 0.0 2.0 0.00 0.00 0.00 51 1005.1
20260831111513 56 320 0.0 1.0 0.00 0.00 0.00 52 1005.1
20260831110011 55 320 0.0 2.0 0.00 0.00 0.00 52 1005.1
20260831104514 56 320 0.0 0.0 0.00 0.00 0.00 52 1005.2
20260831103007 56 320 0.0 0.0 0.00 0.00 0.00 52 1005.1
20260831101507 56 320 0.0 2.0 0.00 0.00 0.00 52 1005.2
20260831100005 56 320 0.0 0.0 0.00 0.00 0.00 51 1005.1
20260831094503 57 320 0.0 0.0 0.00 0.00 0.00 50 1005.2
20260831093104 57 320 0.0 0.0 0.00 0.00 0.00 49 1005.2
20260831091605 58 320 0.0 0.0 0.00 0.00 0.00 48 1005.2
20260831090057 58 320 0.0 0.0 0.00 0.00 0.00 48 1005.3
20260831084553 59 320 0.0 1.0 0.00 0.00 0.00 49 1005.2
20260831083055 60 320 0.0 2.0 0.00 0.00 0.00 46 1005.4
20260831081551 60 320 1.0 4.0 0.00 0.00 0.00 46 1005.4
20260831080049 60 320 0.0 0.0 0.00 0.00 0.00 47 1005.5
20260831074550 60 320 0.0 1.0 0.00 0.00 0.00 46 1005.5
20260831073047 61 320 0.0 1.0 0.00 0.00 0.00 47 1005.4
20260831071544 61 320 0.0 0.0 0.00 0.00 0.00 46 1005.5
20260831070045 62 320 0.0 1.0 0.00 0.00 0.00 45 1005.6
20260831064541 63 320 0.0 0.0 0.00 0.00 0.00 44 1005.6
20260831063040 63 320 0.0 2.0 0.00 0.00 0.00 42 1005.6
20260831061539 63 320 0.0 3.0 0.00 0.00 0.00 42 1005.5
20260831060039 63 320 0.0 1.0 0.00 0.00 0.00 42 1005.5
20260831054538 64 320 0.0 1.0 0.00 0.00 0.00 42 1005.5
20260831053038 65 320 0.0 3.0 0.00 0.00 0.00 40 1005.5
20260831051543 66 320 0.0 1.0 0.00 0.00 0.00 40 1005.5
20260831050037 67 320 0.0 0.0 0.00 0.00 0.00 38 1005.6
20260831044537 68 320 0.0 2.0 0.00 0.00 0.00 37 1005.5
20260831043036 69 320 0.0 2.0 0.00 0.00 0.00 35 1005.3
20260831041549 71 320 0.0 0.0 0.00 0.00 0.00 34 1005.2
20260831040040 72 360 2.0 5.0 0.00 0.00 0.00 31 1005.0
20260831034534 73 360 2.0 8.0 0.00 0.00 0.00 31 1004.7
20260831033034 73 278 2.0 7.0 0.00 0.00 0.00 30 1004.5
20260831031533 74 360 2.0 6.0 0.00 0.00 0.00 29 1004.3
20260831030036 75 285 3.0 10.0 0.00 0.00 0.00 27 1004.0
20260831024538 76 291 2.0 9.0 0.00 0.00 0.00 26 1004.1
20260831023032 77 360 1.0 6.0 0.00 0.00 0.00 25 1004.0
20260831021534 78 360 0.0 3.0 0.00 0.00 0.00 25 1004.0
20260831020030 79 360 0.0 8.0 0.00 0.00 0.00 24 1004.0
20260831014534 80 360 0.0 4.0 0.00 0.00 0.00 22 1003.9
20260831013029 81 360 3.0 6.0 0.00 0.00 0.00 21 1003.8
20260831011534 82 360 3.0 6.0 0.00 0.00 0.00 20 1003.9
20260831010027 83 360 3.0 8.0 0.00 0.00 0.00 19 1004.0
20260831004528 83 171 2.0 11.0 0.00 0.00 0.00 18 1004.1
20260831003025 83 360 2.0 6.0 0.00 0.00 0.00 18 1004.0
20260831001524 81 330 1.0 6.0 0.00 0.00 0.00 20 1004.2
20260831000024 81 330 1.0 7.0 0.00 0.00 0.00 21 1004.2
20260830234523 81 330 1.0 3.0 0.00 0.00 0.00 19 1004.2
20260830233025 82 330 0.0 4.0 0.00 0.00 0.00 19 1004.4
20260830231520 82 330 1.0 4.0 0.00 0.00 0.00 19 1004.4
20260830230022 83 330 2.0 7.0 0.00 0.00 0.00 19 1004.6
20260830224517 83 330 1.0 8.0 0.00 0.00 0.00 18 1004.8
20260830223015 83 330 0.0 5.0 0.00 0.00 0.00 18 1005.0
20260830221514 82 330 2.0 8.0 0.00 0.00 0.00 18 1005.2
20260830220018 82 330 3.0 7.0 0.00 0.00 0.00 19 1005.6
20260830214507 82 330 2.0 7.0 0.00 0.00 0.00 19 1005.8
20260830213006 82 330 1.0 5.0 0.00 0.00 0.00 19 1006.0
20260830211504 83 330 0.0 7.0 0.00 0.00 0.00 19 1006.3
20260830210106 82 330 0.0 3.0 0.00 0.00 0.00 22 1006.4
20260830204556 81 330 3.0 6.0 0.00 0.00 0.00 20 1006.6
20260830203055 80 330 2.0 7.0 0.00 0.00 0.00 21 1006.7
20260830201551 79 331 0.0 4.0 0.00 0.00 0.00 23 1006.8
20260830200050 79 333 4.0 7.0 0.00 0.00 0.00 23 1006.9
20260830194546 77 333 2.0 11.0 0.00 0.00 0.00 22 1007.1
20260830193048 77 355 2.0 6.0 0.00 0.00 0.00 24 1007.3
20260830191546 76 355 1.0 7.0 0.00 0.00 0.00 27 1007.6
20260830190038 74 355 1.0 7.0 0.00 0.00 0.00 27 1007.8
20260830184534 75 5 2.0 8.0 0.00 0.00 0.00 26 1007.9
20260830183030 74 10 1.0 6.0 0.00 0.00 0.00 28 1008.1
20260830181526 73 23 1.0 6.0 0.00 0.00 0.00 28 1008.3
20260830180039 71 41 1.0 5.0 0.00 0.00 0.00 31 1008.4
20260830174522 70 43 2.0 5.0 0.00 0.00 0.00 30 1008.5
20260830173013 69 43 0.0 4.0 0.00 0.00 0.00 35 1008.5
20260830171509 67 43 0.0 3.0 0.00 0.00 0.00 34 1008.5
20260830170005 65 43 1.0 4.0 0.00 0.00 0.00 37 1008.6
20260830164619 63 43 0.0 4.0 0.00 0.00 0.00 43 1008.6
20260830163057 62 43 0.0 4.0 0.00 0.00 0.00 44 1008.6
20260830161604 62 43 0.0 4.0 0.00 0.00 0.00 47 1008.7
20260830160052 61 43 0.0 3.0 0.00 0.00 0.00 45 1008.6
20260830154548 60 43 0.0 1.0 0.00 0.00 0.00 46 1008.7
20260830153044 59 43 0.0 2.0 0.00 0.00 0.00 51 1008.9
20260830151539 58 43 0.0 3.0 0.00 0.00 0.00 48 1008.9
20260830150038 56 43 2.0 4.0 0.00 0.00 0.00 53 1008.8
20260830144532 53 43 1.0 5.0 0.00 0.00 0.00 59 1008.8
20260830143031 51 43 0.0 0.0 0.00 0.00 0.00 61 1008.7
20260830141538 50 43 0.0 2.0 0.00 0.00 0.00 61 1008.6
20260830140024 50 43 0.0 0.0 0.00 0.00 0.00 59 1008.3